This demonstration page uses our WeatherBlox Daily Observations layout. Learn more.

Left ArrowRight Arrow

47.50024, -111.30081

Hourly Observations for May 2, 2021

Temp ( °F °C ) Dew Point ( °F °C ) Humidity (%) Winds ( mph kmh ) Pressure ( in mb ) Visibility ( mi km ) Precip ( " mm )
12:53 am 00:53 Cloudy 45 7.2 36 2.2 71 71 NNW 17 28 29.84 1010 10 16 0.00 0.00
1:22 am 01:22 Cloudy 43 6.1 36 2.2 76 76 NNW 15 24 29.90 1013 10 16 0.00 0.00
1:53 am 01:53 Cloudy with Light Rain 42 5.6 35 1.7 76 76 NNW 21 33 29.87 1011 10 16 0.00 0.00
2:01 am 02:01 Cloudy with Light Rain 41 5 35 1.7 79 79 NNW 22 35 29.93 1013 10 16 0.00 0.00
2:53 am 02:53 Cloudy with Light Rain 40 4.4 36 2.2 86 86 NNW 14 22 29.89 1012 9 14 0.03 0.76
3:41 am 03:41 Cloudy with Light Rain 38 3.3 35 1.7 89 89 NNW 17 28 29.98 1015 6 10 0.09 2.29
3:53 am 03:53 Cloudy with Light Rain 38 3.3 35 1.7 89 89 NNW 17 28 29.91 1013 7 11 0.10 2.54
4:41 am 04:41 Cloudy with Rain 37 2.8 34 1.1 89 89 NW 8 13 30.00 1016 5 8 0.05 1.27
4:48 am 04:48 Cloudy with Rain 37 3 36 2 93 93 WNW 6 9 30.00 1016 5 8 0.06 1.52
4:53 am 04:53 Cloudy with Light Rain 37 2.8 35 1.7 93 93 NW 6 9 29.94 1014 5 8 0.07 1.78
5:53 am 05:53 Cloudy with Light Rain 35 1.7 33 0.6 93 93 NW 8 13 29.96 1014 7 11 0.10 2.54
6:53 am 06:53 Cloudy with Light Snow 34 1.1 32 0 92 92 NW 8 13 29.98 1015 4 6 0.09 2.29
7:31 am 07:31 Cloudy with Light Rain 36 2.2 34 1.1 93 93 W 8 13 30.05 1018 7 11 0.03 0.76
7:43 am 07:43 Cloudy with Light Rain 36 2.2 34 1.1 93 93 WSW 7 11 30.06 1018 9 14 0.03 0.76
7:53 am 07:53 Cloudy with Light Rain 35 1.7 34 1.1 96 96 WSW 7 11 30.00 1016 8 13 0.04 1.02
8:15 am 08:15 Cloudy with Light Rain 36 2.2 34 1.1 93 93 W 7 11 30.07 1018 5 8 0.02 0.51
8:53 am 08:53 Cloudy with Light Rain 38 3.3 35 1.7 89 89 NNW 15 24 30.01 1016 7 11 0.06 1.52
9:35 am 09:35 Cloudy with Light Rain 39 3.9 35 1.7 86 86 N 9 15 30.05 1018 8 13 0.05 1.27
9:53 am 09:53 Cloudy with Light Rain 41 5 37 2.8 86 86 NNW 10 17 30.03 1017 10 16 0.06 1.52
10:03 am 10:03 Cloudy with Light Rain 40 4.4 36 2.2 86 86 N 16 26 30.06 1018 7 11 0.01 0.25
10:53 am 10:53 Cloudy with Light Rain 42 5.6 38 3.3 85 85 NNW 13 20 30.05 1018 10 16 0.02 0.51
11:00 am 11:00 Cloudy with Light Rain 42 5.6 37 2.8 82 82 NNW 13 20 30.05 1018 10 16 0.00 0.00
11:53 am 11:53 Cloudy with Light Rain 43 6.1 37 2.8 80 80 NNW 15 24 30.07 1018 10 16 0.00 0.00
12:21 pm 12:21 Cloudy 45 7.2 36 2.2 71 71 N 18 30 30.04 1017 10 16 0.00 0.00
12:53 pm 12:53 Cloudy 48 8.9 37 2.8 66 66 N 15 24 30.07 1018 10 16 0.00 0.00
1:53 pm 13:53 Cloudy 47 8.3 35 1.7 63 63 N 14 22 30.08 1019 10 16 0.00 0.00
2:53 pm 14:53 Mostly Cloudy 51 10.6 32 0 48 48 N 14 22 30.07 1018 10 16 0.00 0.00
3:53 pm 15:53 Mostly Cloudy 52 11.1 33 0.6 49 49 NNW 22 35 30.08 1019 10 16 0.00 0.00
4:53 pm 16:53 Partly Cloudy 51 10.6 27 -2.8 39 39 NE 7 11 30.08 1019 10 16 0.00 0.00
5:53 pm 17:53 Mostly Cloudy 52 11.1 29 -1.7 41 41 N 5 7 30.08 1019 10 16 0.00 0.00
6:53 pm 18:53 Partly Cloudy 48 8.9 30 -1.1 50 50 N 12 19 30.11 1020 10 16 0.00 0.00
7:53 pm 19:53 Sunny 46 7.8 30 -1.1 54 54 NNW 6 9 30.12 1020 10 16 0.00 0.00
8:53 pm 20:53 Clear 43 6.1 31 -0.6 63 63 NNW 10 17 30.15 1021 10 16 0.00 0.00
9:53 pm 21:53 Clear 38 3.3 30 -1.1 73 73 N 6 9 30.17 1022 10 16 0.00 0.00
10:53 pm 22:53 Clear 35 1.7 29 -1.7 78 78 NW 3 6 30.18 1022 10 16 0.00 0.00
11:53 pm 23:53 Clear 32 0 28 -2.2 85 85 S 5 7 30.19 1022 10 16 0.00 0.00

Powered by AerisWeather